Погода в Расду

Мальдивы     4°15′47″N   72°59′30″E
темп.,
°C
ветер,
м/с
пор.,
м/с
влажн.,
%
обл.,
%
осадки,
мм/ч
давл.,
гПа
погр.,
м
10 августа, ср
ср1023:00+27з5682100 1.9 1009564
02:00+27з568080 1.4 1008501
05:00+27зсз457924 2.3 1008550
08:00+27з347898 0.0 1009637
11:00+27зсз3477100 0.0 1009588
14:00+28сз3477100 0.0 1007658
17:00+28сз45768 0.0 1007691
20:00+28сз347953 0.0 1008655
11 августа, чт
чт1123:00+27зсз23805 0.0 1009442
02:00+27зсз34805 1.6 1008395
05:00+27зсз338027 2.3 1008427
08:00+27зсз237741 0.0 1010490
11:00+28зюз1273100 0.0 1009507
14:00+28сз127299 0.0 1008578
17:00+28з12715 0.0 1008696
20:00+28з22748 0.0 1009548
12 августа, пт
пт1223:00+28ююз117447 0.1 1010378
02:00+27ю1176100 0.5 1009294
05:00+27зюз117841 1.2 1010113
08:00+27юз11765 0.1 1011289
11:00+27ююз117564 0.1 1010393
14:00+27сз117346 0.0 1008551
17:00+28ссз117162 0.0 1008736
20:00+28ссв11716 0.0 1010609
13 августа, сб
сб1323:00+27всв117331 0.0 1011459
02:00+27вюв007485 0.0 1009371
05:00+27в117559 0.0 1009413
08:00+27вюв007546 0.0 1010389
11:00+27зсз007498 0.0 1010466
14:00+27зсз117389 0.0 1008663
17:00+28зюз0071100 0.0 1008709
20:00+28с117373 0.0 1010564
14 августа, вс
вс1423:00+27ссв1174100 0.0 1010433
02:00+27ссз117698 0.1 1009370
05:00+27с017746 0.3 1009208
08:00+27всв117729 0.1 1011406
11:00+27св227654 0.2 1011478
14:00+27ссз127496 0.0 1009550
17:00+28с227281 0.0 1009653
20:00+27ссв2275100 0.0 1010653